Time,TemperatureF,DewpointF,PressureIn,WindDirection,WindDirectionDegrees,WindSpeedMPH,WindSpeedGustMPH,Humidity,HourlyPrecipIn,Conditions,Clouds,dailyrainin,SolarRadiationWatts/m^2,SoftwareType,DateUTC
2015-01-25 00:00:00,36.3,20.4,29.71,WSW,248,1.6,2.3,52,0.00,CLR,,0.00,0.0,WeatherDisplay:10.37,2015-01-25 05:00:00,
2015-01-25 00:05:00,36.3,20.4,29.71,West,270,2.0,2.3,52,0.00,CLR,,0.00,0.0,WeatherDisplay:10.37,2015-01-25 05:05:00,
2015-01-25 00:10:00,36.3,20.4,29.71,WSW,249,2.0,3.0,52,0.00,CLR,,0.00,0.0,WeatherDisplay:10.37,2015-01-25 05:10:00,
2015-01-25 00:15:00,36.3,20.4,29.71,WSW,248,2.4,2.4,52,0.00,CLR,,0.00,0.0,WeatherDisplay:10.37,2015-01-25 05:15:00,
2015-01-25 00:20:00,36.3,20.4,29.71,WSW,253,1.0,3.0,52,0.00,CLR,,0.00,0.0,WeatherDisplay:10.37,2015-01-25 05:20:00,
2015-01-25 00:25:00,36.1,20.2,29.68,WSW,248,2.0,2.3,52,0.00,CLR,,0.00,0.0,WeatherDisplay:10.37,2015-01-25 05:25:00,
2015-01-25 00:30:00,36.1,20.2,29.68,SW,225,2.6,3.5,52,0.00,CLR,,0.00,0.0,WeatherDisplay:10.37,2015-01-25 05:30:00,
2015-01-25 00:35:00,36.1,20.2,29.68,WSW,248,2.2,3.5,52,0.00,CLR,,0.00,0.0,WeatherDisplay:10.37,2015-01-25 05:35:00,
2015-01-25 00:41:00,36.1,20.2,29.68,WSW,248,2.2,2.3,52,0.00,CLR,,0.00,0.0,WeatherDisplay:10.37,2015-01-25 05:41:00,
2015-01-25 00:46:00,36.1,20.6,29.68,WSW,248,1.6,3.5,53,0.00,CLR,,0.00,0.0,WeatherDisplay:10.37,2015-01-25 05:46:00,
2015-01-25 00:51:00,36.1,20.6,29.68,WSW,248,2.4,3.5,53,0.00,CLR,,0.00,0.0,WeatherDisplay:10.37,2015-01-25 05:51:00,
2015-01-25 00:56:00,36.1,20.6,29.71,WSW,248,1.6,2.3,53,0.00,CLR,,0.00,0.0,WeatherDisplay:10.37,2015-01-25 05:56:00,
2015-01-25 01:01:00,36.0,20.5,29.71,WSW,248,2.4,3.5,53,0.00,CLR,,0.00,0.0,WeatherDisplay:10.37,2015-01-25 06:01:00,
2015-01-25 01:06:00,36.0,20.5,29.71,WSW,248,2.4,2.9,53,0.00,CLR,,0.00,0.0,WeatherDisplay:10.37,2015-01-25 06:06:00,
2015-01-25 01:11:00,36.0,20.5,29.68,WSW,248,1.4,2.3,53,0.00,CLR,,0.00,0.0,WeatherDisplay:10.37,2015-01-25 06:11:00,
2015-01-25 01:16:00,36.0,20.5,29.68,WSW,248,1.2,2.3,53,0.00,CLR,,0.00,0.0,WeatherDisplay:10.37,2015-01-25 06:16:00,
2015-01-25 01:21:00,36.0,20.5,29.68,SW,225,1.4,2.3,53,0.00,CLR,,0.00,0.0,WeatherDisplay:10.37,2015-01-25 06:21:00,
2015-01-25 01:26:00,35.8,20.3,29.71,WSW,248,2.2,2.4,53,0.00,CLR,,0.00,0.0,WeatherDisplay:10.37,2015-01-25 06:26:00,
2015-01-25 01:31:00,35.8,20.3,29.71,WSW,248,2.2,2.3,53,0.00,CLR,,0.00,0.0,WeatherDisplay:10.37,2015-01-25 06:31:00,
2015-01-25 01:36:00,35.8,20.7,29.71,WSW,248,1.4,2.2,54,0.00,CLR,,0.00,0.0,WeatherDisplay:10.37,2015-01-25 06:36:00,
2015-01-25 01:41:00,35.8,20.7,29.71,WSW,248,1.4,1.6,54,0.00,CLR,,0.00,0.0,WeatherDisplay:10.37,2015-01-25 06:41:00,
2015-01-25 01:46:00,35.8,20.7,29.71,WSW,248,2.0,2.6,54,0.00,CLR,,0.00,0.0,WeatherDisplay:10.37,2015-01-25 06:46:00,
2015-01-25 01:51:00,35.8,20.7,29.71,SW,225,1.6,3.1,54,0.00,CLR,,0.00,0.0,WeatherDisplay:10.37,2015-01-25 06:51:00,
2015-01-25 01:56:00,35.8,20.7,29.71,WSW,248,2.2,2.3,54,0.00,CLR,,0.00,0.0,WeatherDisplay:10.37,2015-01-25 06:56:00,
2015-01-25 02:01:00,35.8,20.7,29.71,WSW,248,2.0,3.5,54,0.00,CLR,,0.00,0.0,WeatherDisplay:10.37,2015-01-25 07:01:00,
2015-01-25 02:06:00,35.8,20.7,29.71,WSW,248,2.0,3.5,54,0.00,CLR,,0.00,0.0,WeatherDisplay:10.37,2015-01-25 07:06:00,
2015-01-25 02:11:00,35.8,20.7,29.71,WSW,248,2.4,2.9,54,0.00,CLR,,0.00,0.0,WeatherDisplay:10.37,2015-01-25 07:11:00,
2015-01-25 02:16:00,35.8,21.2,29.71,West,270,2.2,4.0,55,0.00,CLR,,0.00,0.0,WeatherDisplay:10.37,2015-01-25 07:16:00,
2015-01-25 02:21:00,35.8,21.2,29.71,WSW,248,2.4,2.4,55,0.00,CLR,,0.00,0.0,WeatherDisplay:10.37,2015-01-25 07:21:00,
2015-01-25 02:26:00,35.8,21.2,29.71,WSW,248,2.6,2.9,55,0.00,CLR,,0.00,0.0,WeatherDisplay:10.37,2015-01-25 07:26:00,
2015-01-25 02:31:00,35.8,21.2,29.71,WSW,248,1.2,3.1,55,0.00,CLR,,0.00,0.0,WeatherDisplay:10.37,2015-01-25 07:31:00,
2015-01-25 02:36:00,35.8,21.2,29.71,WSW,248,1.6,2.0,55,0.00,CLR,,0.00,0.0,WeatherDisplay:10.37,2015-01-25 07:36:00,
2015-01-25 02:41:00,35.8,21.2,29.74,West,270,0.9,2.3,55,0.00,CLR,,0.00,0.0,WeatherDisplay:10.37,2015-01-25 07:41:00,
2015-01-25 02:46:00,35.8,21.2,29.74,WNW,292,1.6,2.3,55,0.00,CLR,,0.00,0.0,WeatherDisplay:10.37,2015-01-25 07:46:00,
2015-01-25 02:51:00,35.8,21.2,29.74,WNW,292,1.4,2.3,55,0.00,CLR,,0.00,0.0,WeatherDisplay:10.37,2015-01-25 07:51:00,
2015-01-25 02:56:00,35.8,21.2,29.68,NW,315,2.0,2.3,55,0.00,CLR,,0.00,0.0,WeatherDisplay:10.37,2015-01-25 07:56:00,
2015-01-25 03:01:00,35.8,21.2,29.68,WNW,292,1.2,2.3,55,0.00,CLR,,0.00,0.0,WeatherDisplay:10.37,2015-01-25 08:01:00,
2015-01-25 03:06:00,35.8,21.2,29.68,WNW,292,1.2,1.2,55,0.00,CLR,,0.00,0.0,WeatherDisplay:10.37,2015-01-25 08:06:00,
2015-01-25 03:11:00,35.8,21.2,29.71,WNW,292,1.4,2.0,55,0.00,CLR,,0.00,0.0,WeatherDisplay:10.37,2015-01-25 08:11:00,
2015-01-25 03:16:00,35.8,21.2,29.71,North,0,2.0,2.3,55,0.00,CLR,,0.00,0.0,WeatherDisplay:10.37,2015-01-25 08:16:00,
2015-01-25 03:21:00,35.8,21.6,29.71,North,0,2.0,2.4,56,0.00,CLR,,0.00,0.0,WeatherDisplay:10.37,2015-01-25 08:21:00,
2015-01-25 03:26:00,35.8,21.6,29.71,NNW,338,1.6,2.3,56,0.00,CLR,,0.00,0.0,WeatherDisplay:10.37,2015-01-25 08:26:00,
2015-01-25 03:31:00,35.8,21.6,29.71,North,0,1.6,2.3,56,0.00,CLR,,0.00,0.0,WeatherDisplay:10.37,2015-01-25 08:31:00,
2015-01-25 03:36:00,35.8,21.6,29.71,NNE,22,1.4,2.3,56,0.00,CLR,,0.00,0.0,WeatherDisplay:10.37,2015-01-25 08:36:00,
2015-01-25 03:41:00,35.8,21.6,29.71,North,0,2.0,2.3,56,0.00,CLR,,0.00,0.0,WeatherDisplay:10.37,2015-01-25 08:41:00,
2015-01-25 03:46:00,35.6,21.4,29.71,NNE,22,1.6,2.3,56,0.00,CLR,,0.00,0.0,WeatherDisplay:10.37,2015-01-25 08:46:00,
2015-01-25 03:51:00,35.6,21.4,29.71,North,0,2.2,2.3,56,0.00,CLR,,0.00,0.0,WeatherDisplay:10.37,2015-01-25 08:51:00,
2015-01-25 03:56:00,35.6,21.4,29.68,NNE,22,1.6,2.9,56,0.00,CLR,,0.00,0.0,WeatherDisplay:10.37,2015-01-25 08:56:00,
2015-01-25 04:01:00,35.6,21.4,29.68,NNE,22,2.0,3.5,56,0.00,CLR,,0.00,0.0,WeatherDisplay:10.37,2015-01-25 09:01:00,
2015-01-25 04:06:00,35.6,21.4,29.68,NNE,22,2.6,3.5,56,0.00,CLR,,0.00,0.0,WeatherDisplay:10.37,2015-01-25 09:06:00,
2015-01-25 04:11:00,35.6,21.4,29.68,NNE,22,2.2,3.5,56,0.00,CLR,,0.00,0.0,WeatherDisplay:10.37,2015-01-25 09:11:00,
2015-01-25 04:16:00,35.6,21.4,29.68,NE,45,1.6,2.3,56,0.00,CLR,,0.00,0.0,WeatherDisplay:10.37,2015-01-25 09:16:00,
2015-01-25 04:21:00,35.6,21.4,29.68,NNE,22,2.4,3.1,56,0.00,CLR,,0.00,0.0,WeatherDisplay:10.37,2015-01-25 09:21:00,
2015-01-25 04:26:00,35.6,21.4,29.71,NNE,22,2.4,2.4,56,0.00,CLR,,0.00,0.0,WeatherDisplay:10.37,2015-01-25 09:26:00,
2015-01-25 04:31:00,35.6,21.4,29.71,NNE,22,1.6,2.3,56,0.00,CLR,,0.00,0.0,WeatherDisplay:10.37,2015-01-25 09:31:00,
2015-01-25 04:36:00,35.6,21.4,29.71,NNE,22,0.0,0.0,56,0.00,CLR,,0.00,0.0,WeatherDisplay:10.37,2015-01-25 09:36:00,
2015-01-25 04:41:00,35.6,21.4,29.71,NNE,22,0.0,0.0,56,0.00,CLR,,0.00,0.0,WeatherDisplay:10.37,2015-01-25 09:41:00,
2015-01-25 04:46:00,35.6,21.4,29.71,NNE,22,0.0,0.0,56,0.00,CLR,,0.00,0.0,WeatherDisplay:10.37,2015-01-25 09:46:00,
2015-01-25 04:51:00,35.6,21.9,29.71,NNE,22,0.0,0.0,57,0.00,CLR,,0.00,0.0,WeatherDisplay:10.37,2015-01-25 09:51:00,
2015-01-25 04:56:00,35.6,21.9,29.71,NNE,22,0.0,0.0,57,0.00,CLR,,0.00,0.0,WeatherDisplay:10.37,2015-01-25 09:56:00,
2015-01-25 05:01:00,35.6,21.9,29.71,NNE,22,0.0,0.0,57,0.00,CLR,,0.00,0.0,WeatherDisplay:10.37,2015-01-25 10:01:00,
2015-01-25 05:06:00,35.6,21.9,29.71,NNE,22,0.0,2.3,57,0.00,CLR,,0.00,0.0,WeatherDisplay:10.37,2015-01-25 10:06:00,
2015-01-25 05:12:00,35.6,21.9,29.74,NE,45,2.4,3.5,57,0.00,CLR,,0.00,0.0,WeatherDisplay:10.37,2015-01-25 10:12:00,
2015-01-25 05:17:00,35.4,21.7,29.74,ENE,68,7.4,12.7,57,0.00,CLR,,0.00,0.0,WeatherDisplay:10.37,2015-01-25 10:17:00,
2015-01-25 05:22:00,34.9,20.3,29.74,NNE,22,6.7,8.1,55,0.00,CLR,,0.00,0.0,WeatherDisplay:10.37,2015-01-25 10:22:00,
2015-01-25 05:27:00,34.5,19.6,29.74,NNE,22,9.0,12.7,54,0.00,CLR,,0.00,0.0,WeatherDisplay:10.37,2015-01-25 10:27:00,
2015-01-25 05:32:00,34.2,18.8,29.74,ENE,68,7.1,13.8,53,0.00,CLR,,0.00,0.0,WeatherDisplay:10.37,2015-01-25 10:32:00,
2015-01-25 05:37:00,33.8,18.5,29.74,ENE,68,6.9,8.1,53,0.00,CLR,,0.00,0.0,WeatherDisplay:10.37,2015-01-25 10:37:00,
2015-01-25 05:42:00,33.6,18.7,29.74,NE,45,9.7,12.7,54,0.00,CLR,,0.00,0.0,WeatherDisplay:10.37,2015-01-25 10:42:00,
2015-01-25 05:47:00,33.6,18.7,29.74,NNE,22,7.8,8.1,54,0.00,CLR,,0.00,0.0,WeatherDisplay:10.37,2015-01-25 10:47:00,
2015-01-25 05:52:00,33.4,18.6,29.74,NE,45,5.4,8.1,54,0.00,CLR,,0.00,0.0,WeatherDisplay:10.37,2015-01-25 10:52:00,
2015-01-25 05:57:00,33.3,18.4,29.74,NNE,22,7.8,8.1,54,0.00,CLR,,0.00,0.0,WeatherDisplay:10.37,2015-01-25 10:57:00,
2015-01-25 06:02:00,33.3,18.4,29.74,NNE,22,6.9,9.2,54,0.00,CLR,,0.00,0.0,WeatherDisplay:10.37,2015-01-25 11:02:00,
2015-01-25 06:07:00,33.1,18.2,29.74,NE,45,4.9,6.9,54,0.00,CLR,,0.00,0.0,WeatherDisplay:10.37,2015-01-25 11:07:00,
2015-01-25 06:12:00,33.1,18.2,29.77,ENE,68,7.4,8.1,54,0.00,CLR,,0.00,0.0,WeatherDisplay:10.37,2015-01-25 11:12:00,
2015-01-25 06:17:00,32.9,18.1,29.77,ENE,68,7.1,8.1,54,0.00,CLR,,0.00,0.0,WeatherDisplay:10.37,2015-01-25 11:17:00,
2015-01-25 06:22:00,32.9,17.6,29.77,NE,45,9.4,9.7,53,0.00,CLR,,0.00,0.0,WeatherDisplay:10.37,2015-01-25 11:22:00,
2015-01-25 06:27:00,32.7,17.5,29.77,NNE,22,6.7,10.4,53,0.00,CLR,,0.00,0.0,WeatherDisplay:10.37,2015-01-25 11:27:00,
2015-01-25 06:32:00,32.7,17.5,29.77,NE,45,6.7,10.7,53,0.00,CLR,,0.00,0.0,WeatherDisplay:10.37,2015-01-25 11:32:00,
2015-01-25 06:37:00,32.7,17.9,29.77,NE,45,9.7,11.5,54,0.00,CLR,,0.00,0.0,WeatherDisplay:10.37,2015-01-25 11:37:00,
2015-01-25 06:42:00,32.5,17.3,29.74,NNE,22,8.5,12.8,53,0.00,CLR,,0.00,0.0,WeatherDisplay:10.37,2015-01-25 11:42:00,
2015-01-25 06:47:00,32.2,16.9,29.74,ENE,68,12.1,13.8,53,0.00,CLR,,0.00,0.0,WeatherDisplay:10.37,2015-01-25 11:47:00,
2015-01-25 06:52:00,32.0,16.8,29.74,ENE,68,8.1,10.4,53,0.00,CLR,,0.00,0.0,WeatherDisplay:10.37,2015-01-25 11:52:00,
2015-01-25 06:57:00,31.8,16.6,29.77,ENE,68,10.2,12.7,53,0.00,CLR,,0.00,0.0,WeatherDisplay:10.37,2015-01-25 11:57:00,
2015-01-25 07:02:00,31.6,16.0,29.77,NNE,22,10.7,12.7,52,0.00,CLR,,0.00,0.0,WeatherDisplay:10.37,2015-01-25 12:02:00,
2015-01-25 07:07:00,31.3,15.7,29.77,NE,45,10.2,13.8,52,0.00,CLR,,0.00,0.0,WeatherDisplay:10.37,2015-01-25 12:07:00,
2015-01-25 07:12:00,31.1,15.5,29.80,NE,45,10.0,11.5,52,0.00,CLR,,0.00,0.0,WeatherDisplay:10.37,2015-01-25 12:12:00,
2015-01-25 07:17:00,30.7,14.3,29.80,ENE,68,10.2,12.7,50,0.00,CLR,,0.00,0.0,WeatherDisplay:10.37,2015-01-25 12:17:00,
2015-01-25 07:22:00,30.6,14.1,29.80,ENE,68,9.8,12.7,50,0.00,CLR,,0.00,0.0,WeatherDisplay:10.37,2015-01-25 12:22:00,
2015-01-25 07:27:00,30.2,13.8,29.80,NE,45,11.2,17.3,50,0.00,CLR,,0.00,0.0,WeatherDisplay:10.37,2015-01-25 12:27:00,
2015-01-25 07:32:00,29.8,12.5,29.80,NNE,22,10.9,13.8,48,0.00,CLR,,0.00,0.0,WeatherDisplay:10.37,2015-01-25 12:32:00,
2015-01-25 07:37:00,29.7,12.3,29.80,NE,45,11.2,15.0,48,0.00,CLR,,0.00,0.0,WeatherDisplay:10.37,2015-01-25 12:37:00,
2015-01-25 07:42:00,29.5,12.2,29.83,NNE,22,6.4,9.2,48,0.00,CLR,,0.00,0.0,WeatherDisplay:10.37,2015-01-25 12:42:00,
2015-01-25 07:47:00,29.3,11.5,29.83,ENE,68,8.1,11.5,47,0.00,CLR,,0.00,0.0,WeatherDisplay:10.37,2015-01-25 12:47:00,
2015-01-25 07:52:00,28.9,10.7,29.83,NE,45,13.5,15.4,46,0.00,CLR,,0.00,0.0,WeatherDisplay:10.37,2015-01-25 12:52:00,
2015-01-25 07:57:00,28.6,9.4,29.83,West,270,9.8,10.4,44,0.00,CLR,,0.00,0.0,WeatherDisplay:10.37,2015-01-25 12:57:00,
2015-01-25 08:02:00,28.4,9.2,29.83,North,0,10.9,13.8,44,0.00,CLR,,0.00,0.0,WeatherDisplay:10.37,2015-01-25 13:02:00,
2015-01-25 08:07:00,28.2,9.1,29.83,NE,45,8.1,9.2,44,0.00,CLR,,0.00,0.0,WeatherDisplay:10.37,2015-01-25 13:07:00,
2015-01-25 08:12:00,27.9,8.2,29.83,NNE,22,13.2,15.0,43,0.00,CLR,,0.00,0.0,WeatherDisplay:10.37,2015-01-25 13:12:00,
2015-01-25 08:17:00,27.9,8.2,29.83,NE,45,7.1,15.0,43,0.00,CLR,,0.00,0.0,WeatherDisplay:10.37,2015-01-25 13:17:00,
2015-01-25 08:22:00,27.7,8.1,29.83,ENE,68,10.0,12.7,43,0.00,CLR,,0.00,0.0,WeatherDisplay:10.37,2015-01-25 13:22:00,
2015-01-25 08:27:00,27.7,8.1,29.80,NE,45,9.2,12.7,43,0.00,CLR,,0.00,0.0,WeatherDisplay:10.37,2015-01-25 13:27:00,
2015-01-25 08:32:00,27.3,7.7,29.80,NNE,22,10.2,15.0,43,0.00,CLR,,0.00,0.0,WeatherDisplay:10.37,2015-01-25 13:32:00,
2015-01-25 08:37:00,27.1,7.6,29.80,NNE,22,9.8,11.5,43,0.00,CLR,,0.00,0.0,WeatherDisplay:10.37,2015-01-25 13:37:00,
2015-01-25 08:42:00,27.0,6.9,29.83,ENE,68,11.8,12.7,42,0.00,CLR,,0.00,0.0,WeatherDisplay:10.37,2015-01-25 13:42:00,
2015-01-25 08:47:00,27.0,7.4,29.83,ENE,68,10.0,12.7,43,0.00,CLR,,0.00,0.0,WeatherDisplay:10.37,2015-01-25 13:47:00,
2015-01-25 08:52:00,26.6,7.1,29.83,NE,45,12.1,15.0,43,0.00,CLR,,0.00,0.0,WeatherDisplay:10.37,2015-01-25 13:52:00,
2015-01-25 08:57:00,26.4,6.4,29.85,NE,45,9.2,13.8,42,0.00,CLR,,0.00,0.0,WeatherDisplay:10.37,2015-01-25 13:57:00,
2015-01-25 09:02:00,26.1,6.1,29.85,NE,45,12.1,17.3,42,0.00,CLR,,0.00,0.0,WeatherDisplay:10.37,2015-01-25 14:02:00,
2015-01-25 09:07:00,26.1,6.1,29.85,NNE,22,11.4,13.8,42,0.00,CLR,,0.00,0.0,WeatherDisplay:10.37,2015-01-25 14:07:00,
2015-01-25 09:12:00,25.9,5.4,29.85,NE,45,10.7,16.1,41,0.00,CLR,,0.00,0.0,WeatherDisplay:10.37,2015-01-25 14:12:00,
2015-01-25 09:17:00,25.5,5.0,29.85,NE,45,9.7,14.0,41,0.00,CLR,,0.00,0.0,WeatherDisplay:10.37,2015-01-25 14:17:00,
2015-01-25 09:22:00,25.5,5.0,29.85,NNE,22,9.0,11.5,41,0.00,CLR,,0.00,0.0,WeatherDisplay:10.37,2015-01-25 14:22:00,
2015-01-25 09:27:00,25.5,5.0,29.85,ENE,68,9.7,13.8,41,0.00,CLR,,0.00,0.0,WeatherDisplay:10.37,2015-01-25 14:27:00,
2015-01-25 09:32:00,25.5,5.0,29.85,NE,45,9.7,11.5,41,0.00,CLR,,0.00,0.0,WeatherDisplay:10.37,2015-01-25 14:32:00,
2015-01-25 09:37:00,25.5,5.0,29.85,NE,45,7.6,11.5,41,0.00,CLR,,0.00,0.0,WeatherDisplay:10.37,2015-01-25 14:37:00,
2015-01-25 09:42:00,25.3,4.9,29.85,NNW,338,9.4,12.7,41,0.00,CLR,,0.00,0.0,WeatherDisplay:10.37,2015-01-25 14:42:00,
2015-01-25 09:47:00,25.3,4.9,29.85,East,90,7.4,12.7,41,0.00,CLR,,0.00,0.0,WeatherDisplay:10.37,2015-01-25 14:47:00,
2015-01-25 09:52:00,25.3,4.9,29.85,NE,45,8.1,13.8,41,0.00,CLR,,0.00,0.0,WeatherDisplay:10.37,2015-01-25 14:52:00,
2015-01-25 09:57:00,25.3,4.9,29.85,NE,45,10.0,10.7,41,0.00,CLR,,0.00,0.0,WeatherDisplay:10.37,2015-01-25 14:57:00,
2015-01-25 10:02:00,25.3,4.3,29.85,ENE,68,11.4,17.3,40,0.00,CLR,,0.00,0.0,WeatherDisplay:10.37,2015-01-25 15:02:00,
2015-01-25 10:07:00,25.3,4.9,29.85,NNE,22,6.9,12.1,41,0.00,CLR,,0.00,0.0,WeatherDisplay:10.37,2015-01-25 15:07:00,
2015-01-25 10:12:00,25.3,3.8,29.88,ENE,68,10.7,13.8,39,0.00,CLR,,0.00,0.0,WeatherDisplay:10.37,2015-01-25 15:12:00,
2015-01-25 10:17:00,25.3,3.8,29.88,ENE,68,11.2,12.7,39,0.00,CLR,,0.00,0.0,WeatherDisplay:10.37,2015-01-25 15:17:00,
2015-01-25 10:22:00,25.3,3.8,29.88,NE,45,11.8,17.3,39,0.00,CLR,,0.00,0.0,WeatherDisplay:10.37,2015-01-25 15:22:00,
2015-01-25 10:27:00,25.3,3.8,29.88,ENE,68,9.0,11.5,39,0.00,CLR,,0.00,0.0,WeatherDisplay:10.37,2015-01-25 15:27:00,
2015-01-25 10:32:00,25.3,3.8,29.88,NE,45,7.8,9.2,39,0.00,CLR,,0.00,0.0,WeatherDisplay:10.37,2015-01-25 15:32:00,
2015-01-25 10:37:00,25.3,3.8,29.88,NNE,22,6.7,8.1,39,0.00,CLR,,0.00,0.0,WeatherDisplay:10.37,2015-01-25 15:37:00,
2015-01-25 10:42:00,25.3,3.8,29.88,NE,45,10.0,13.8,39,0.00,CLR,,0.00,0.0,WeatherDisplay:10.37,2015-01-25 15:42:00,